Location: Austin
(30.3000°N, 97.7500°W)
Time: 07:34:08
(UTC-05:00)

Cosmos 1758 Rocket - Pass Details

Date: 16 June 2025
Orbit: 597 x 628 km, 82.5° (Epoch: 08 July)

Event Time Altitude Azimuth Distance (km) Brightness Sun altitude
Rises 05:56:08 0° 177° (S) 2,826 6.7 -7.0°
Reaches altitude 10° 05:58:21 10° 174° (S) 1,926 5.8 -6.6°
Maximum altitude 06:02:32 61° 94° (E) 678 4.1 -5.8°
Drops below altitude 10° 06:06:45 10° 14° (NNE) 1,938 6.8 -5.0°
Sets 06:08:59 0° 11° (N) 2,845 7.6 -4.6°
